Location: Stigler
(35.2540°N, 95.1230°W)
Time: 22:35:05
(UTC-05:00)

BREEZE M DEB (TANK) - Pass Details

Date: 26 September 2017
Orbit: 336 x 13679 km, 49.5° (Epoch: 19 October)

Event Time Altitude Azimuth Distance (km) Brightness Sun altitude
Rises 20:37:24 0° 308° (NW) 5,066 8.9 -18.4°
Reaches altitude 10° 20:42:06 10° 310° (NW) 2,867 7.4 -19.3°
Maximum altitude 20:47:28 66° 34° (NE) 542 2.6 -20.4°
Enters shadow 20:47:36 65° 52° (NE) 537 2.5 -20.4°
